Regional Weather Roundup
Issued by NWS Upton, NY

Current Version | Previous Version | Text Only | Print | Product List | Glossary On
Versions: 1 2 3 4 5 6 7 8 9 10 11 12 13 14 15 16 17 18 19 20 21 22 23 24 25 26 27 28 29
000
ASUS41 KOKX 290204
RWROKX

REGIONAL WEATHER ROUNDUP
NATIONAL WEATHER SERVICE NEW YORK NY
1000 PM EDT SUN AUG 28 2016

NOTE: "FAIR" INDICATES FEW OR NO CLOUDS BELOW 12,000 FEET WITH NO
SIGNIFICANT WEATHER AND/OR OBSTRUCTIONS TO VISIBILITY.

NYZ071-072-176-178-NJZ106-104-290300-
NEW YORK CITY METRO AREA

CITY           SKY/WX    TMP DP  RH WIND       PRES   REMARKS
Central Park   CLEAR     76  66  71 VRB3      30.18F
LaGuardia APRT PTCLDY    78  68  71 S12       30.15S
Kennedy INTL   PTCLDY    78  66  66 S8        30.17S
Newark/Liberty PTCLDY    76  66  71 S7        30.16S
Bronx Bot Gard   N/A     75  64  69 S2        30.17F
Wall St Helipt CLEAR     77  68  73 S5        30.17S
Teterboro      CLEAR     76  64  66 S8        30.15R
$$

NYZ177-179-078>081-290300-
LONG ISLAND NEW YORK

CITY           SKY/WX    TMP DP  RH WIND       PRES   REMARKS
Farmingdale    CLEAR     75  67  76 S8        30.16F
MacArthur/ISP  PTCLDY    74  65  73 S7        30.16S
Shirley        CLEAR     72  66  81 S6        30.17S
Riverhead      NOT AVBL
Westhampton    CLEAR     69  64  84 S5        30.19S
Southampton      N/A     72  68  88 S7        30.13F
Bridgehampton    N/A     68  64  88 CALM      30.16F
East Hampton   FAIR      69  64  84 CALM      30.17S
Montauk          N/A     72  66  81 VRB5      30.19S
$$

NYZ052-065-067-290300-
HUDSON VALLEY

CITY           SKY/WX    TMP DP  RH WIND       PRES   REMARKS
White Plains   CLEAR     71  64  78 SE5       30.17R
Newburgh       CLEAR     77  64  65 CALM      30.16R
Montgomery     CLEAR     72  67  84 S5        30.15R
Poughkeepsie   CLEAR     76  61  59 S7        30.12S
Albany         MOCLDY    79  64  60 S8        30.09S
$$

NJZ001-105-106-008-010-013-015-019>022-104-290300-
NEW JERSEY

CITY           SKY/WX    TMP DP  RH WIND       PRES   REMARKS
Newark/Liberty PTCLDY    76  66  71 S7        30.16S
Teterboro      CLEAR     76  64  66 S8        30.15R
Caldwell       CLEAR     77  65  66 CALM      30.16S
Morristown     PTCLDY    77  64  65 S3        30.16S
Somerville     CLEAR     75  63  66 S5        30.14S
Linden         FAIR      76  63  63 CALM      30.18R
Sussex         CLEAR     70  68  93 SE3       30.17R
Abdover          N/A     71  66  84 CALM      30.18R
Trenton        CLEAR     76  63  64 S10       30.16R
Millville      CLEAR     69  68  96 CALM      30.18S
Atlantic City  CLEAR     73  67  81 SE7       30.17S
Wrightstown    CLEAR     71  65  81 S5        30.14F
Toms River     CLEAR     69  64  84 CALM      30.17F
Belmar         CLEAR     74  68  81 S3        30.18S
$$

PAZ047>061-062-071-290300-
EASTERN PENNSYLVANIA

CITY           SKY/WX    TMP DP  RH WIND       PRES   REMARKS
Philadelphia   CLEAR     78  65  63 S8        30.16S
Allentown      CLEAR     77  63  61 W5        30.16R
Scranton       PTCLDY    76  64  66 CALM      30.16S
$$

CTZ002-004>006-009-010-012-RIZ004-006-007-MAZ004-011-015-290300-
SOUTHERN NEW ENGLAND
 IN CT

CITY           SKY/WX    TMP DP  RH WIND       PRES   REMARKS
Bradley INTL   PTCLDY    73  61  65 S12       30.15S
Hartford       CLEAR     75  63  66 S6        30.15R
Danbury        CLEAR     71  63  75 VRB6      30.18S
Wtrbury/Oxford   N/A     70  61  73 S7        30.20R
Bridgeport     PTCLDY    76  65  68 S8        30.16S
Meriden        CLEAR     74  62  66 S6        30.16R
New Haven      CLEAR     73  64  73 S9        30.17S
Chester        FAIR      70  64  83 S6        30.18S
Groton         CLEAR     73  66  78 S6        30.17S
Wilimantic     CLEAR     71  65  81 SW5       30.18R

 IN RI

CITY           SKY/WX    TMP DP  RH WIND       PRES   REMARKS
Providence     PTCLDY    69  62  78 SW6       30.18S
Block Island   CLEAR     71  65  81 CALM      30.19S
Westerly       CLEAR     71  62  73 CALM      30.19S
 IN MA

CITY           SKY/WX    TMP DP  RH WIND       PRES   REMARKS
Boston         PTCLDY    72  64  76 S15       30.15F
Worcester      CLEAR     69  58  67 SW8       30.19R
Westfield      PTCLDY    74  61  63 S8        30.14R
Provincetown   CLEAR     68  65  90 S7        30.19S
Nantucket      CLEAR     67  65  93 SE9       30.19S
$$

ANZ330-335-338-340-345-350-353-355-290300-
COASTAL MARINE OBSERVATIONS


STATION/POSITION TIME  SKY/WX   TEMP    WIND        PRES    VSBY  WAVE
                                AIR SEA DIR/SP/G                  HT/PER
                 (UTC)          (F)     (DEG/KT/KT) (MB)    (MI)  (FT/S)
NY HARB ENTRANCE 0050            76 76  160/ 14/ 16 1020.9          3/ 6
20S FIRE ISLAND  0050            75 76  150/ 12/ 14 1021.3          3/15
GREAT SOUTH BAY  NOT AVBL
23 SSW MONTAUK P 0050            74 76  180/  6/  8 1022.5          2/15
15 E BARNEGAT LI 0100               77                N/A           3/ 9
HUDSON CANYON    0050            75 78              1021.6          3/ 8
KINGS POINT      0100            76 78              1021.1
EXECUTION ROCKS  0100            76     170/  6/  8   N/A
CENTRAL LI SOUND 0100            75 77  170/ 12/ 16   N/A           1/ 2
EASTERN LI SOUND 0100            72 71  160/  8/ 10   N/A
ROBBINS REEF     0100            75                 1020.6
$$


>>>>>>>>>>>>>>>>>>>>>>>>>>>> KEY <<<<<<<<<<<<<<<<<<<<<<<<<<<
>                                                          <
>     SKY/WX - Sky Condition/Present Weather               <
>     TMP    - Temperature in Fahrenheit                   <
>     DP     - Dew Point in Fahrenheit                     <
>     RH     - Relative Humidity in Percent                <
>     WIND   - Direction (from) and Speed in MPH           <
>     PRES   - Mean Sea Level Pressure (inches of Hg)      <
>     WCI    - Wind Chill Index                            <
>     VSB    - VISIBILITY IN MILES                         <
>     HX     - HEAT INDEX                                  <
>     TC     - TEMPERATURE IN CELSIUS                      <
>     VRB    - VARIABLE WIND DIRECTION                     <
>                                                          <
>>>>>>>>>>>>>>>>>>>>>>>>>>>> KEY <<<<<<<<<<<<<<<<<<<<<<<<<<<




USA.gov is the U.S. government's official web portal to all federal, state and local government web resources and services.